Starlink 30547

operational
NORAD ID: 58044 Int'l Des: 2023-156 Owner: SPXS Country: US Constellation: starlink
LEOCIRCULAR

关于 Starlink 30547

正在加载描述...

实时位置

正在加载3D地球...

即将过境

高度历史

Altitude vs Time

uPlot chart will show altitude changes over time

两行轨道根数

1 58044U 23156S 25258.72330277 .00000814 00000-0 39633-4 0 9992
2 58044 53.1577 260.9142 0001896 86.6784 273.4434 15.30196226108245
Epoch: Sep 15, 2025 • Age: 17 hours

当前状态

高度 477.0 km
速度 7.63 km/s
星下点 -4.77°S, 99.74°E
发射日期 Oct 9, 2023
运行时间 1.9 years
类型 internet

技术详情

分类 Payload
质量 730.00 kg
干质量 700.00 kg
总质量 730.00 kg
长度 0.30 m
直径 4.10 m
跨度 29.00 m
形状 Box + pan
制造商 SPXS
平台类型 Starlink V2M
阶段状态 In Orbit
所有者/国家 SPXS/US

大型星座

Loading constellations...